KUPON 1 25045U 97070A 21064.40785097 .00000012 00000-0 00000-0 0 9995 2 25045 14.6416 9.7460 0004888 339.7573 20.2229 1.00290050 85299 SL-12 R/B(2) 1 25048U 97070D 21065.62654352 -.00000233 00000-0 00000-0 0 9998 2 25048 14.8652 9.2991 0015902 93.0404 273.1254 0.99642068 84813 SL-12 R/B(AUX MOTOR) 1 25053U 97070E 21064.98281285 -.00000073 00000-0 00000-0 0 9995 2 25053 45.4332 156.7483 6731405 150.7679 274.8934 2.41729386205256 SL-12 R/B(AUX MOTOR) 1 25054U 97070F 21065.64796784 .00010718 00000-0 48128-3 0 9997 2 25054 46.6832 306.0599 4551998 278.3025 34.2524 6.47759582462259